West Yellowstone, MT

6:07 AM MST on February 07, 2016 (GMT -0700)
Lower Beartrap | | Change Station
CLOSE
Current Station
Personal Weather Station
Location: West Yellowstone, MT
Elevation: 6565 ft
Nearby Weather Stations

Elev 6565 ft 44.79 °N, 111.14 °W | Updated 7 minutes ago

Partly Cloudy
Partly Cloudy
10.4 °F
Feels Like 1 °F
N
5.4
Wind Variable Wind from North
Gusts 6.0 mph

Today
High -- | Low -- °F
--% Chance of Precip.
Yesterday
High -- | Low -- °F
Precip. -- in
Pressure 30.60 in
Visibility -9999.0 miles
Clouds
Windchill 1 °F
Dew Point 8 °F
Humidity 88%
Rainfall 0.00 in
Snow Depth Not available.
7:36 AM 5:41 PM
Waning Crescent, 2% visible
METAR KP60 071256Z AUTO 29003KT M16/M18 A3036 RMK AO1 SLP360 T11611183
Pressure 30.60 in
Visibility -9999.0 miles
Clouds
Windchill 1 °F
Dew Point 8 °F
Humidity 88%
Rainfall 0.00 in
Snow Depth Not available.
7:36 AM 5:41 PM
Waning Crescent, 2% visible
METAR KP60 071256Z AUTO 29003KT M16/M18 A3036 RMK AO1 SLP360 T11611183

10-Day Weather Forecast

Almanac

Astronomy

Feb. 07, 2016 Rise Set
Actual Time
Civil Twilight
Nautical Twilight
Astronomical Twilight
Moon
Length of Visible Light
Length of Day
Tomorrow will be .
, % of the Moon is Illuminated

Today's Extremes

State Highs State Lows

Community

WunderPhotos

Upload Photos

1,891,189 photos uploaded!

WunderBlog® & News

Nearby

Air Quality

  Air Quality AQ Index Pollutant
Not available.

Snow Depth

Station Depth Elevation

Earthquake Activity

City Distance Mag. Time & Date
Minimum magnitude displayed is 2.5.

Coastal Water Temperatures

Place Temperature

Stations

Nearby Weather Stations

Station Location Temp. Windchill Dew Point Humidity Wind Precip. Elev Updated Type
                   

Watches & Warnings

There are currently no watches in effect.